Location: Champseau
(45.8333°N, 1.7667°E)
Time: 03:07:51
(UTC+00:00)

Cosmos 614 Rocket - Pass Details

Date: 18 April 2021
Orbit: 734 x 762 km, 74.1° (Epoch: 10 May)

Event Time Altitude Azimuth Distance (km) Brightness Sun altitude
Rises 20:28:24 0° 197° (SSW) 3,187 7.0 -17.0°
Reaches altitude 10° 20:30:46 10° 196° (SSW) 2,263 6.2 -17.3°
Maximum altitude 20:35:53 82° 109° (ESE) 757 3.8 -18.0°
Drops below altitude 10° 20:41:01 10° 23° (NNE) 2,260 6.6 -18.7°
Sets 20:43:22 0° 23° (NNE) 3,184 7.4 -19.0°
